This is the latest recevied weather packets stored in our database for station/object F4IDZ-11. If no packets are shown the sender has not sent any weather packets the latest 1 day(s).
| Time | Temp. | Humidity | Pressure | Rain* | Wind** | Luminosity | Snow |
|---|---|---|---|---|---|---|---|
| 1778084033 | 20° C | 54% | 991.4 hPa | - | - | - | - |
| 1778083133 | 20° C | 54% | 991.3 hPa | - | - | - | - |
| 1778079532 | 19.44° C | 54% | 991.3 hPa | - | - | - | - |
| 1778077052 | 19.44° C | 55% | 991.4 hPa | - | - | - | - |
| 1778076152 | 19.44° C | 55% | 991.4 hPa | - | - | - | - |
| 1778072551 | 17.78° C | 56% | 991.5 hPa | - | - | - | - |
| 1778071651 | 17.22° C | 56% | 991.4 hPa | - | - | - | - |
| 1778070751 | 17.22° C | 56% | 991.4 hPa | - | - | - | - |
| 1778066250 | 16.11° C | 57% | 991.1 hPa | - | - | - | - |
| 1778060849 | 13.89° C | 58% | 990.9 hPa | - | - | - | - |
| 1778059949 | 13.89° C | 58% | 990.9 hPa | - | - | - | - |
| 1778057248 | 13.33° C | 59% | 990.6 hPa | - | - | - | - |
| 1778056348 | 12.78° C | 59% | 990.4 hPa | - | - | - | - |
| 1778055448 | 12.78° C | 59% | 990.3 hPa | - | - | - | - |
| 1778054548 | 12.78° C | 59% | 990.3 hPa | - | - | - | - |
| 1778052747 | 12.22° C | 59% | 990.2 hPa | - | - | - | - |
| 1778051847 | 11.67° C | 59% | 990 hPa | - | - | - | - |
| 1778050947 | 11.67° C | 60% | 989.9 hPa | - | - | - | - |
| 1778050047 | 11.67° C | 59% | 989.8 hPa | - | - | - | - |
| 1778046446 | 11.67° C | 59% | 989.4 hPa | - | - | - | - |
| 1778045546 | 11.67° C | 59% | 989.3 hPa | - | - | - | - |
| 1778044646 | 11.67° C | 60% | 989.1 hPa | - | - | - | - |
| 1778043745 | 11.67° C | 59% | 989.1 hPa | - | - | - | - |
| 1778042845 | 11.67° C | 59% | 989.1 hPa | - | - | - | - |
| 1778041945 | 11.67° C | 59% | 989 hPa | - | - | - | - |
* Rain since midnight (hover to see other rain measurements)
** Current wind speed in m/s (hover to see current wind gust speed)